User: anonymous   Login
Location: Deuil
(48.9767°N, 2.3272°E)
Time: 06:24:35
(UTC+00:00)
Language:

CENTAUR R/B - Orbit

View from above orbital plane
View from above orbital plane
View from above satellite
View from above satellite

Ground track
Ground track

The orbit data is extracted from the following two-line orbital elements,

1 26906U 01040B   22014.72471726 0.00000200  00000-0  16738-3 0    06
2 26906  63.4412 359.6196 0489094 339.2795  20.7205 13.44101735    01
Epoch (UTC): 14 January 2022 17:23:35
Eccentricity: 0.0489094
inclination: 63.4412°
perigee height: 728 km
apogee height: 1459 km
right ascension of ascending node: 359.6196°
argument of perigee: 339.2795°
revolutions per day: 13.44101735
mean anomaly at epoch: 20.7205°
orbit number at epoch: 0

The dashed part of the orbit path shows where the satellite is in the earth's shadow,  

DLR